GW4610 Weather Reports


time (UTC)temp
F
wind
direction
speed
knots
gust
knots
rain 1hr
in
rain 24hr
in
rain mn
in
humidity
%
barometer
mb
20260507211720 64 301 4.3 6.1 0.00 0.00 0.00 36 1010.3
20260507211216 65 299 8.7 9.6 0.00 0.00 0.00 35 1010.3
20260507210714 65 325 2.6 8.7 0.00 0.00 0.00 38 1010.0
20260507210210 66 299 3.5 5.2 0.00 0.00 0.00 37 1010.0
20260507205706 68 226 5.2 8.7 0.00 0.00 0.00 35 1010.3
20260507205203 68 226 5.2 8.7 0.00 0.00 0.00 35 1010.3
20260507204700 68 307 5.2 6.1 0.00 0.00 0.00 38 1010.0
20260507204158 67 279 3.5 3.5 0.00 0.00 0.00 33 1010.0
20260507203655 64 290 3.5 5.2 0.00 0.00 0.00 37 1010.3
20260507203152 65 250 4.3 8.7 0.00 0.00 0.00 37 1010.3
20260507202647 67 307 5.2 7.8 0.00 0.00 0.00 35 1010.3
20260507202144 67 298 2.6 3.5 0.00 0.00 0.00 37 1010.3
20260507201645 68 290 3.5 6.1 0.00 0.00 0.00 37 1010.4
20260507201142 68 255 4.3 7.0 0.00 0.00 0.00 37 1010.4
20260507200638 67 308 2.6 5.2 0.00 0.00 0.00 34 1010.2
20260507200134 66 312 4.3 6.1 0.00 0.00 0.00 37 1010.3
20260507195631 64 308 3.5 5.2 0.00 0.00 0.00 37 1010.4
20260507195128 67 285 5.2 7.8 0.00 0.00 0.00 35 1010.4
20260507194626 67 283 1.7 5.2 0.00 0.00 0.00 36 1010.6
20260507194120 68 302 3.5 8.7 0.00 0.00 0.00 35 1010.4
20260507193618 68 351 0.0 0.0 0.00 0.00 0.00 36 1010.5
20260507193115 67 295 1.7 7.0 0.00 0.00 0.00 38 1010.6
20260507192611 69 307 3.5 6.1 0.00 0.00 0.00 35 1010.4
20260507192108 69 330 1.7 2.6 0.00 0.00 0.00 34 1010.5
20260507191603 67 296 3.5 9.6 0.00 0.00 0.00 35 1010.4
20260507191100 68 323 3.5 5.2 0.00 0.00 0.00 36 1010.5
20260507190558 68 284 2.6 5.2 0.00 0.00 0.00 32 1010.5
20260507190056 66 191 4.3 7.0 0.00 0.00 0.00 42 1010.7
20260507185554 66 291 7.8 9.6 0.00 0.00 0.00 39 1010.8
20260507185051 66 304 4.3 9.6 0.00 0.00 0.00 37 1010.6
20260507184549 67 290 7.8 11.3 0.00 0.00 0.00 39 1010.6
20260507184047 67 264 3.5 7.8 0.00 0.00 0.00 38 1010.9
20260507183542 68 238 1.7 3.5 0.00 0.00 0.00 37 1010.8
20260507183039 67 287 1.7 6.1 0.00 0.00 0.00 37 1010.9
20260507182536 67 305 3.5 6.1 0.00 0.00 0.00 39 1010.8
20260507182032 67 297 3.5 7.8 0.00 0.00 0.00 36 1010.7
20260507181529 67 250 0.0 7.0 0.00 0.00 0.00 37 1011.0
20260507181025 68 270 4.3 5.2 0.00 0.00 0.00 40 1011.0
20260507180521 67 262 0.0 2.6 0.00 0.00 0.00 46 1010.9
20260507180019 68 299 2.6 3.5 0.00 0.00 0.00 35 1011.1
20260507175515 68 293 6.1 9.6 0.00 0.00 0.00 42 1011.1
20260507175012 67 290 1.7 3.5 0.00 0.00 0.00 36 1011.2
20260507174509 66 303 1.7 5.2 0.00 0.00 0.00 36 1011.5
20260507174007 66 277 2.6 3.5 0.00 0.00 0.00 43 1011.3
20260507173504 66 334 3.5 3.5 0.00 0.00 0.00 44 1011.3
20260507173001 66 265 3.5 5.2 0.00 0.00 0.00 39 1011.6
20260507172457 66 272 3.5 5.2 0.00 0.00 0.00 40 1011.5
20260507171954 65 307 1.7 5.2 0.00 0.00 0.00 38 1011.4
20260507171449 65 288 3.5 7.8 0.00 0.00 0.00 38 1011.7
20260507170947 65 314 3.5 7.8 0.00 0.00 0.00 39 1011.9
20260507170443 65 322 6.1 7.8 0.00 0.00 0.00 43 1012.2
20260507165940 64 288 0.9 2.6 0.00 0.00 0.00 43 1012.1
20260507165436 64 306 2.6 7.0 0.00 0.00 0.00 39 1012.3
20260507164931 65 303 4.3 6.1 0.00 0.00 0.00 42 1012.2
20260507164429 65 231 1.7 2.6 0.00 0.00 0.00 45 1012.3
20260507163926 64 355 0.9 2.6 0.00 0.00 0.00 46 1012.5
20260507163423 63 20 5.2 9.6 0.00 0.00 0.00 48 1012.5
20260507162920 63 294 3.5 7.8 0.00 0.00 0.00 43 1012.7
20260507162415 62 94 4.3 5.2 0.00 0.00 0.00 47 1012.8
20260507161913 62 302 3.5 5.2 0.00 0.00 0.00 47 1012.9
20260507161409 64 266 1.7 6.1 0.00 0.00 0.00 43 1012.6
20260507160906 63 284 1.7 3.5 0.00 0.00 0.00 48 1012.9
20260507160401 62 292 2.6 5.2 0.00 0.00 0.00 48 1013.0
20260507155858 61 127 3.5 6.1 0.00 0.00 0.00 47 1013.0
20260507155354 60 42 0.9 6.1 0.00 0.00 0.00 44 1013.2
20260507154850 60 21 3.5 11.3 0.00 0.00 0.00 46 1013.1
20260507154348 60 348 5.2 8.7 0.00 0.00 0.00 47 1013.3
20260507153845 61 312 7.8 8.7 0.00 0.00 0.00 47 1013.2
20260507153341 61 309 2.6 6.1 0.00 0.00 0.00 45 1013.3
20260507152838 63 22 3.5 5.2 0.00 0.00 0.00 49 1013.5
20260507152334 62 120 0.0 0.0 0.00 0.00 0.00 47 1013.5
20260507151830 61 283 2.6 2.6 0.00 0.00 0.00 49 1013.6
20260507151327 60 106 1.7 2.6 0.00 0.00 0.00 49 1013.8
20260507150824 62 163 3.5 3.5 0.00 0.00 0.00 53 1013.7
20260507150320 61 137 1.7 6.1 0.00 0.00 0.00 53 1013.9
20260507145816 60 167 5.2 6.1 0.00 0.00 0.00 57 1014.0
20260507145313 61 189 0.9 2.6 0.00 0.00 0.00 56 1014.3
20260507144810 61 158 0.9 2.6 0.00 0.00 0.00 60 1014.2
20260507144307 58 240 0.9 2.6 0.00 0.00 0.00 50 1014.4
20260507143804 58 346 0.0 3.5 0.00 0.00 0.00 54 1014.7
20260507143301 59 52 0.0 1.7 0.00 0.00 0.00 51 1014.6
20260507142757 58 294 2.6 5.2 0.00 0.00 0.00 54 1014.4
20260507142254 57 341 1.7 2.6 0.00 0.00 0.00 53 1014.6
20260507141750 57 230 2.6 2.6 0.00 0.00 0.00 49 1014.7
20260507141247 55 305 2.6 5.2 0.00 0.00 0.00 52 1014.9
20260507140743 57 310 3.5 5.2 0.00 0.00 0.00 50 1015.1
20260507140241 59 70 0.9 1.7 0.00 0.00 0.00 56 1015.0
20260507135738 58 314 1.7 2.6 0.00 0.00 0.00 55 1015.0
20260507135235 56 273 0.0 1.7 0.00 0.00 0.00 56 1014.9
20260507134731 55 284 0.0 1.7 0.00 0.00 0.00 56 1015.0
20260507134228 55 284 0.9 1.7 0.00 0.00 0.00 56 1015.4
20260507133724 56 279 0.0 1.7 0.00 0.00 0.00 52 1015.1
20260507133221 55 288 0.9 0.9 0.00 0.00 0.00 60 1015.4
20260507132718 55 304 0.0 0.0 0.00 0.00 0.00 54 1015.5
20260507132215 55 304 0.9 1.7 0.00 0.00 0.00 59 1015.6
20260507131711 54 340 0.0 0.9 0.00 0.00 0.00 56 1015.7
20260507131209 54 312 1.7 1.7 0.00 0.00 0.00 56 1015.7
20260507130705 54 318 0.9 2.6 0.00 0.00 0.00 57 1015.7
20260507130203 54 298 1.7 2.6 0.00 0.00 0.00 57 1015.7
20260507125702 53 297 0.9 1.7 0.00 0.00 0.00 64 1015.8
20260507125159 53 302 0.9 0.9 0.00 0.00 0.00 62 1016.0
20260507124655 53 244 0.0 0.9 0.00 0.00 0.00 64 1015.9
20260507124153 53 281 0.0 0.9 0.00 0.00 0.00 67 1015.9
20260507123651 53 297 0.0 0.9 0.00 0.00 0.00 67 1015.9
20260507123148 53 320 0.0 0.0 0.00 0.00 0.00 66 1015.8
20260507122643 53 7 0.0 0.0 0.00 0.00 0.00 66 1015.8
20260507122139 53 291 0.0 0.0 0.00 0.00 0.00 69 1015.6
20260507121635 52 292 0.0 0.0 0.00 0.00 0.00 67 1015.6
20260507121131 52 292 0.0 0.0 0.00 0.00 0.00 70 1015.6
20260507120627 52 302 0.0 0.0 0.00 0.00 0.00 67 1015.8
20260507120124 52 303 0.0 0.0 0.00 0.00 0.00 67 1015.5
20260507115621 52 302 0.0 0.0 0.00 0.00 0.00 72 1015.6
20260507115116 52 302 0.0 0.0 0.00 0.00 0.00 73 1015.5
20260507114613 51 302 0.0 0.0 0.00 0.00 0.00 74 1015.5
20260507114110 51 302 0.0 0.0 0.00 0.00 0.00 75 1015.6
20260507113607 51 302 0.0 0.0 0.00 0.00 0.00 74 1015.6
20260507113104 51 302 0.0 0.0 0.00 0.00 0.00 70 1015.5
20260507112602 51 302 0.0 0.0 0.00 0.00 0.00 72 1015.5
20260507112058 51 302 0.0 0.0 0.00 0.00 0.00 72 1015.4
20260507111555 51 302 0.0 0.0 0.00 0.00 0.00 71 1015.5
20260507111052 51 302 0.0 0.0 0.00 0.00 0.00 70 1015.2
20260507110548 51 302 0.0 0.0 0.00 0.00 0.00 68 1015.4
20260507110045 51 302 0.0 0.0 0.00 0.00 0.00 69 1015.4
20260507105542 51 303 0.0 0.0 0.00 0.00 0.00 70 1015.2
20260507105038 51 303 0.0 0.0 0.00 0.00 0.00 65 1015.0
20260507104536 51 302 0.9 1.7 0.00 0.00 0.00 66 1014.7
20260507104032 51 321 1.7 1.7 0.00 0.00 0.00 64 1014.9
20260507103528 51 338 0.0 0.9 0.00 0.00 0.00 63 1014.8
20260507103025 51 2 0.0 0.0 0.00 0.00 0.00 64 1014.7
20260507102521 51 353 0.0 0.0 0.00 0.00 0.00 64 1014.7
20260507102017 51 296 0.0 0.0 0.00 0.00 0.00 63 1014.7
20260507101513 51 7 0.0 0.9 0.00 0.00 0.00 63 1014.4
20260507101010 52 8 0.0 1.7 0.00 0.00 0.00 66 1014.2
20260507100507 52 15 0.0 0.0 0.00 0.00 0.00 64 1014.4
20260507100005 52 342 0.0 0.9 0.00 0.00 0.00 64 1014.4
20260507095503 52 350 0.0 1.7 0.00 0.00 0.00 64 1014.4
20260507094959 52 2 1.7 1.7 0.00 0.00 0.00 63 1014.3
20260507094455 52 347 2.6 2.6 0.00 0.00 0.00 63 1014.5
20260507093953 52 331 2.6 2.6 0.00 0.00 0.00 64 1014.6
20260507093450 52 332 2.6 3.5 0.00 0.00 0.00 66 1014.4
20260507092948 52 311 1.7 2.6 0.00 0.00 0.00 68 1014.4
20260507092444 52 308 2.6 2.6 0.00 0.00 0.00 68 1014.3
20260507091941 52 322 2.6 2.6 0.00 0.00 0.00 69 1014.3
20260507091438 52 15 0.9 1.7 0.00 0.00 0.00 68 1014.2
20260507090933 52 24 0.9 2.6 0.00 0.00 0.00 69 1014.1
20260507090430 52 328 0.9 2.6 0.00 0.00 0.00 71 1014.1
20260507085926 52 309 0.9 1.7 0.00 0.00 0.00 75 1014.1
20260507085424 52 349 0.0 0.0 0.00 0.00 0.00 74 1014.4
20260507084921 52 347 0.0 0.0 0.00 0.00 0.00 73 1014.3
20260507084418 53 298 0.0 0.0 0.00 0.00 0.00 72 1014.1
20260507083915 52 250 0.9 2.6 0.00 0.00 0.00 72 1014.0
20260507083411 53 18 0.0 0.0 0.00 0.00 0.00 74 1014.0
20260507082907 53 301 0.0 0.9 0.00 0.00 0.00 73 1014.0
20260507082403 53 305 1.7 2.6 0.00 0.00 0.00 73 1014.1
20260507081900 53 37 0.9 0.9 0.00 0.00 0.00 74 1014.2
20260507081356 53 314 1.7 2.6 0.00 0.00 0.00 74 1014.2
20260507080853 53 300 1.7 2.6 0.00 0.00 0.00 74 1014.1
20260507080349 53 349 0.0 1.7 0.00 0.00 0.00 76 1014.0
20260507075845 53 15 0.9 1.7 0.00 0.00 0.00 77 1014.0
20260507075341 53 295 0.9 1.7 0.00 0.00 0.00 78 1014.0
20260507074837 53 318 0.0 0.9 0.00 0.00 0.00 78 1013.8
20260507074335 53 346 0.9 2.6 0.00 0.00 0.00 78 1013.8
20260507073832 53 338 0.0 0.9 0.00 0.00 0.00 84 1013.7
20260507073329 53 8 0.0 0.9 0.00 0.00 0.00 81 1013.8
20260507072826 53 331 0.9 1.7 0.00 0.00 0.00 82 1013.9
20260507072323 53 326 0.0 0.9 0.00 0.00 0.00 84 1013.8
20260507071821 53 328 0.0 1.7 0.00 0.00 0.00 85 1013.8
20260507071317 53 295 0.0 0.0 0.00 0.00 0.00 85 1014.0
20260507070814 53 307 0.0 0.0 0.00 0.00 0.00 87 1013.8
20260507070311 53 307 0.0 0.0 0.00 0.00 0.00 88 1013.8
20260507065808 53 312 0.0 0.0 0.00 0.00 0.00 89 1013.8
20260507065306 53 316 0.0 0.0 0.00 0.00 0.00 88 1013.6
20260507064802 53 324 0.0 0.0 0.00 0.00 0.00 87 1013.8
20260507064300 53 255 0.0 0.0 0.00 0.00 0.00 84 1013.7
20260507063758 53 255 0.0 0.0 0.00 0.00 0.00 85 1013.9
20260507063254 53 255 0.0 0.0 0.00 0.00 0.00 85 1013.9
20260507062751 53 255 0.0 0.0 0.00 0.00 0.00 84 1014.0
20260507062248 53 255 0.0 0.0 0.00 0.00 0.00 84 1014.0
20260507061746 53 256 0.0 0.0 0.00 0.00 0.00 84 1014.0
20260507061244 53 256 0.0 0.0 0.00 0.00 0.00 83 1014.1
20260507060742 53 256 0.0 0.0 0.00 0.00 0.00 83 1014.1
20260507060238 53 256 0.0 0.0 0.00 0.00 0.00 82 1014.0
20260507055735 54 255 0.0 0.0 0.00 0.00 0.00 82 1014.1
20260507055230 54 256 0.0 0.9 0.00 0.00 0.00 82 1014.4
20260507054726 54 247 0.9 0.9 0.00 0.00 0.00 81 1014.2
20260507054224 54 243 0.0 0.9 0.00 0.00 0.00 82 1014.4
20260507053721 53 269 0.0 0.9 0.00 0.00 0.00 83 1014.1
20260507053219 53 266 0.0 0.0 0.00 0.00 0.00 83 1014.2
20260507052718 53 266 0.0 0.0 0.00 0.00 0.00 81 1014.0
20260507052213 54 266 0.0 0.0 0.00 0.00 0.00 82 1014.1
20260507051711 54 290 0.0 0.0 0.00 0.00 0.00 81 1014.1
20260507051208 54 290 0.0 0.0 0.00 0.00 0.00 81 1014.1
20260507050704 54 263 0.0 0.9 0.00 0.00 0.00 82 1014.1
20260507050201 54 253 0.0 0.0 0.00 0.00 0.00 81 1014.2
20260507045658 54 246 0.9 0.9 0.00 0.00 0.00 83 1014.0
20260507045155 54 255 0.0 0.0 0.00 0.00 0.00 83 1014.2
20260507044652 54 239 0.9 1.7 0.00 0.00 0.00 81 1014.2
20260507044148 54 239 0.0 0.0 0.00 0.00 0.00 83 1013.8
20260507043644 54 293 0.0 0.9 0.00 0.00 0.00 82 1014.1
20260507043142 54 199 0.0 0.0 0.00 0.00 0.00 82 1014.0
20260507042638 54 250 0.0 0.0 0.00 0.00 0.00 80 1014.3
20260507042133 54 242 0.0 0.9 0.00 0.00 0.00 80 1014.3
20260507041630 54 284 0.0 0.9 0.00 0.00 0.00 80 1014.3
20260507041126 54 302 0.9 1.7 0.00 0.00 0.00 79 1014.1
20260507040624 54 316 0.0 0.0 0.00 0.00 0.00 80 1014.1
20260507040120 54 299 0.0 0.0 0.00 0.12 0.12 83 1014.3
20260507035616 54 299 0.0 1.7 0.00 0.12 0.12 82 1014.2
20260507035112 54 307 0.9 0.9 0.00 0.12 0.12 82 1014.2
20260507034609 54 130 0.9 1.7 0.00 0.12 0.12 81 1013.6
20260507034107 55 136 0.9 1.7 0.00 0.12 0.12 80 1014.0
20260507033605 55 342 0.9 2.6 0.00 0.12 0.12 80 1014.3
20260507033102 55 285 0.9 1.7 0.00 0.12 0.12 80 1014.7
20260507032559 55 295 2.6 2.6 0.00 0.12 0.12 80 1014.6
20260507032055 55 56 0.9 3.5 0.00 0.12 0.12 80 1014.2
20260507031552 55 346 0.9 1.7 0.00 0.12 0.12 82 1013.9
20260507031049 55 92 0.9 2.6 0.00 0.12 0.12 82 1013.7
20260507030545 55 238 0.0 0.9 0.00 0.12 0.12 83 1014.2
20260507030043 55 26 0.9 1.7 0.00 0.12 0.12 82 1014.6
20260507025540 55 50 0.9 1.7 0.00 0.12 0.12 81 1014.2
20260507025038 55 60 3.5 3.5 0.00 0.12 0.12 81 1014.4
20260507024535 55 329 1.7 2.6 0.00 0.12 0.12 81 1014.3
20260507024032 55 325 1.7 5.2 0.00 0.12 0.12 82 1014.3
20260507023527 56 325 0.9 5.2 0.00 0.12 0.12 82 1014.5
20260507023026 56 345 0.9 3.5 0.00 0.12 0.12 84 1014.2
20260507022522 56 221 3.5 7.0 0.00 0.12 0.12 84 1014.2
20260507022017 56 128 0.9 0.9 0.00 0.12 0.12 83 1013.7
20260507021514 56 123 0.9 0.9 0.00 0.12 0.12 83 1013.4
20260507021010 56 17 3.5 5.2 0.00 0.12 0.12 83 1013.3
20260507020508 56 269 0.0 0.9 0.00 0.12 0.12 84 1013.5
20260507020004 56 27 0.0 1.7 0.00 0.12 0.12 83 1013.4
20260507015503 56 20 2.6 3.5 0.00 0.12 0.12 83 1013.4
20260507015001 56 324 0.0 1.7 0.00 0.12 0.12 83 1013.7
20260507014457 56 350 1.7 3.5 0.00 0.12 0.12 83 1013.6
20260507013952 56 24 0.0 0.9 0.00 0.12 0.12 84 1013.6
20260507013449 56 306 0.9 2.6 0.00 0.12 0.12 83 1013.6
20260507012946 56 326 3.5 6.1 0.00 0.12 0.12 83 1013.3
20260507012443 57 326 0.9 2.6 0.00 0.12 0.12 84 1013.2
20260507011940 57 57 2.6 7.0 0.00 0.12 0.12 83 1013.3
20260507011437 57 25 2.6 3.5 0.00 0.12 0.12 82 1013.4
20260507010937 57 340 1.7 2.6 0.00 0.12 0.12 82 1013.1
20260507010432 57 310 2.6 5.2 0.00 0.12 0.12 82 1013.0
20260507005929 57 300 3.5 6.1 0.00 0.12 0.12 82 1013.1
20260507005427 57 294 2.6 5.2 0.00 0.12 0.12 83 1012.8
20260507004923 57 319 2.6 3.5 0.00 0.12 0.12 82 1012.9
20260507004420 58 65 1.7 2.6 0.00 0.12 0.12 83 1012.7
20260507003917 58 29 1.7 2.6 0.00 0.12 0.12 82 1012.8
20260507003412 58 67 0.9 2.6 0.00 0.12 0.12 82 1013.3
20260507002908 58 42 0.0 1.7 0.00 0.12 0.12 82 1013.3
20260507002404 58 300 0.9 1.7 0.00 0.12 0.12 82 1013.6
20260507001902 58 302 1.7 1.7 0.00 0.12 0.12 81 1013.5
20260507001358 58 320 0.0 0.9 0.00 0.12 0.12 82 1013.0
20260507000855 59 328 1.7 3.5 0.00 0.12 0.12 81 1013.3
20260507000350 59 301 2.6 5.2 0.00 0.12 0.12 81 1013.0
20260506235847 59 39 0.0 1.7 0.00 0.12 0.12 81 1013.2
20260506235344 59 146 1.7 2.6 0.00 0.12 0.12 81 1013.3
20260506234835 59 313 0.0 1.7 0.00 0.12 0.12 81 1013.1
20260506234332 60 19 0.0 1.7 0.00 0.12 0.12 80 1012.8
20260506233830 60 260 1.7 6.1 0.00 0.12 0.12 79 1012.7
20260506233325 60 322 1.7 5.2 0.00 0.12 0.12 79 1012.7
20260506232823 61 340 1.7 2.6 0.00 0.12 0.12 78 1012.8
20260506232318 61 291 2.6 3.5 0.00 0.12 0.12 78 1012.6
20260506231815 61 298 1.7 2.6 0.00 0.12 0.12 77 1012.4
20260506231313 61 292 3.5 7.8 0.00 0.12 0.12 76 1012.2
20260506230810 61 312 2.6 7.0 0.00 0.12 0.12 77 1012.1
20260506230307 61 329 2.6 7.0 0.00 0.12 0.12 76 1011.7
20260506225803 62 314 3.5 7.0 0.00 0.12 0.12 78 1011.9
20260506225301 62 293 4.3 6.1 0.00 0.12 0.12 77 1011.9
20260506224757 62 297 2.6 5.2 0.00 0.12 0.12 76 1012.0
20260506224254 62 277 0.0 1.7 0.00 0.12 0.12 78 1012.0
20260506223749 62 233 1.7 6.1 0.00 0.12 0.12 78 1012.0
20260506223240 62 301 3.5 5.2 0.00 0.12 0.12 77 1011.9
20260506222737 62 258 1.7 5.2 0.00 0.12 0.12 78 1011.8
20260506222232 62 297 3.5 7.0 0.00 0.12 0.12 78 1011.8
20260506221730 62 301 1.7 3.5 0.00 0.12 0.12 76 1011.8
20260506221228 62 254 2.6 7.0 0.00 0.12 0.12 77 1011.8
20260506220725 63 303 2.6 5.2 0.00 0.12 0.12 77 1011.6
20260506220219 63 291 3.5 7.0 0.00 0.12 0.12 77 1011.8
20260506215717 63 268 1.7 3.5 0.00 0.12 0.12 80 1011.7
20260506215212 64 310 3.5 5.2 0.00 0.12 0.12 79 1011.7
20260506214709 64 294 2.6 5.2 0.00 0.12 0.12 80 1011.5
20260506214206 64 307 0.9 5.2 0.00 0.12 0.12 80 1011.3
20260506213705 64 292 1.7 2.6 0.00 0.12 0.12 78 1011.2
20260506213202 64 300 0.9 5.2 0.00 0.12 0.12 79 1011.0
20260506212659 64 331 4.3 7.0 0.00 0.12 0.12 80 1010.8
20260506212154 65 311 2.6 3.5 0.00 0.12 0.12 79 1010.7